Regional Weather Roundup
Issued by NWS Northern Indiana

Home | Current Version | Previous Version | Text Only | Print | Product List | Glossary Off
Versions: 1 2 3 4 5 6 7 8 9 10 11 12 13 14 15 16 17 18 19 20 21 22 23 24 25 26 27 28 29 30 31 32 33 34 35 36 37 38 39 40 41 42 43 44 45 46 47 48 49 50

000
ASUS43 KIWX 311900
RWRIWX

KIWX WEATHER ROUNDUP
NATIONAL WEATHER SERVICE NORTHERN INDIANA
300 PM EDT WED AUG 31 2016

NOTE: "FAIR" INDICATES FEW OR NO CLOUDS BELOW 12,000 FEET WITH NO
SIGNIFICANT WEATHER AND/OR OBSTRUCTIONS TO VISIBILITY.

* THESE STATIONS ARE NOT UNDER NWS QUALITY CONTROL. THEY ALSO MAY NOT
  REPORT WEATHER SUCH AS PRECIPITATION OR FOG.

INZ001>027-312000-
NORTHERN INDIANA

CITY           SKY/WX    TMP DP  RH WIND       PRES   REMARKS
GARY*          PTSUNNY   75  63  64 N9G26     30.08R
VALPARAISO     PTSUNNY   74  65  73 N15G23    30.05R
KNOX*          MOSUNNY   77  46  33 N17       30.02R
SOUTH BEND     PTSUNNY   77  68  73 N14       30.02R
ELKHART*       PTSUNNY  N/A N/A N/A CALM      30.00S
GOSHEN         CLOUDY    80  66  62 VRB7      29.98F
MONTICELLO*    MOSUNNY   83  66  56 NW8       29.99F
ANGOLA*        PTSUNNY   81  72  74 N3        29.98F
FORT WAYNE     CLOUDY    82  68  62 NW7       29.99F
PERU/GRISSOM   MOSUNNY   83  69  63 NW7       29.98F

$$
INZ028>050-312000-
CENTRAL INDIANA

CITY           SKY/WX    TMP DP  RH WIND       PRES   REMARKS
LAFAYETTE      MOSUNNY   81  70  69 VRB6      29.99F
KOKOMO*        PTSUNNY   82  72  69 N6        29.99F
MUNCIE*        PTSUNNY   81  71  71 N8        30.00S
INDIANAPOLIS   PTSUNNY   84  69  60 NW15      29.98F

$$
MIZ043>046-050>051-056>058-064>065-071>073-077>080-312000-
SOUTHWEST LOWER MICHIGAN

CITY           SKY/WX    TMP DP  RH WIND       PRES   REMARKS
BATTLE CREEK   CLOUDY    74  68  81 N9        30.02F
BENTON HARBOR  MOSUNNY   75  59  57 VRB6G21   30.04R
COLDWATER*     PTSUNNY   77  67  71 N8G18     30.00S
HILLSDALE*     PTSUNNY   77  67  70 N7        30.00S
HOLLAND        SUNNY     78  56  46 VRB5      30.04F
GRAND RAPIDS   MOSUNNY   77  55  46 N9        30.04S
KALAMAZOO      PTSUNNY   78  65  63 N15       30.01S
STURGIS*       CLOUDY    76  68  76 NE8       29.99S
THREE RIVERS*  RAIN      73  69  87 NE5       30.01R

$$
OHZ001>008-015>018-024>025-312000-
NORTHWEST OHIO

CITY           SKY/WX    TMP DP  RH WIND       PRES   REMARKS
DEFIANCE       SUNNY     83  67  58 N8        29.98F
FINDLAY        CLOUDY    84  68  58 W10       29.95F
TOLEDO EXPRESS SUNNY     81  71  71 NW7       29.96F
TOLEDO METCALF MOSUNNY   81  70  69 N8        29.96F
LIMA           CLOUDY    80  72  76 NW9       29.97F

$$
AND FOR LAKE MICHIGAN COASTAL AND OPEN LAKE BUOY OBSERVATIONS

STATION/POSITION TEMP    WIND        PRES    VSBY  WAVE
                 AIR SEA DIR/SP/G                  HT/PER
                 (F)     (DEG/KT/KT) (MB)    (MI)  (FT/S)
CALUMET HARBOR    74     340/ 13/ 17 1017.9R
MICHIGAN CITY     71     340/ 17/ 19   N/A
BURNS HARBOR      72     360/ 14/ 17 1018.3R
SAINT JOSEPH      71      10/ 14/ 20 1018.3R
SOUTH LAKE BUOY   70 75   20/ 17/ 21 1017.6          5/ 6
4 MI NW BRIDGMAN  71 72  350/ 17/ 21 1016.6F         5/ 5
MICHIGAN CITY     72 70  360/ 16/ 19   N/A           5/ 5

$$
&&




USA.gov is the U.S. government's official web portal to all federal, state and local government web resources and services.